Location: Al Mulaqqa?ah
(24.1833°N, 32.8833°E)
Time: 20:52:08
(UTC+00:00)

COSMO-SKYMED 1 - Pass Details

Date: 26 September 2021
Orbit: 621 x 623 km, 97.9° (Epoch: 23 October)

Event Time Altitude Azimuth Distance (km) Brightness Sun altitude
Rises 15:54:22 0° 6° (N) 2,898 5.9 -4.0°
Reaches altitude 10° 15:56:34 10° 3° (N) 1,989 5.2 -4.5°
Maximum altitude 16:00:50 61° 284° (WNW) 703 3.2 -5.4°
Drops below altitude 10° 16:05:05 10° 203° (SSW) 1,980 5.5 -6.4°
Sets 16:07:17 0° 200° (SSW) 2,883 6.2 -6.9°
